When you browse on this site, cookies collect data to enhance your experience and personalize the content and advertising you see.
Visit our Privacy Policy to learn more. By continuing to use the site, you agree to this use of cookies and data.
  • In Czech Republic
  • List of Countries
  • For 7 days
  • Water Temperature
  • Satellite Maps
  • Weather Map
  • Weather Widgets
  • user-avatar
    Login

    Hourly Weather Chakhansur

    Today, 21 March, Thursday

    Time Temperature Precipitation Wind Pressure Humidity
    00:00 +20°C° 0 mm 3 mps 718 mmHg 25%
    01:00 +19°C° 0 mm 3 mps 718 mmHg 26%
    02:00 +19°C° 0 mm 3 mps 718 mmHg 27%
    03:00 +18°C° 0 mm 3 mps 717 mmHg 29%
    04:00 +18°C° 0 mm 2 mps 717 mmHg 31%
    05:00 +18°C° 0 mm 3 mps 718 mmHg 31%
    06:00 +18°C° 0 mm 3 mps 718 mmHg 32%
    07:00 +18°C° 0 mm 3 mps 718 mmHg 32%
    08:00 +20°C° 0 mm 4 mps 719 mmHg 28%
    09:00 +22°C° 0 mm 4 mps 719 mmHg 23%
    10:00 +25°C° 0 mm 5 mps 719 mmHg 19%
    11:00 +26°C° 0 mm 4 mps 719 mmHg 17%
    12:00 +27°C° 0 mm 4 mps 718 mmHg 15%
    13:00 +28°C° 0 mm 3 mps 718 mmHg 13%
    14:00 +29°C° 0 mm 3 mps 718 mmHg 13%
    15:00 +29°C° 0 mm 3 mps 717 mmHg 13%
    16:00 +29°C° 0 mm 3 mps 717 mmHg 13%
    17:00 +28°C° 0 mm 2 mps 716 mmHg 15%
    18:00 +27°C° 0 mm 1 mps 716 mmHg 18%
    19:00 +26°C° 0 mm 1 mps 716 mmHg 20%
    20:00 +25°C° 0 mm 1 mps 716 mmHg 20%
    21:00 +25°C° 0 mm 1 mps 716 mmHg 21%
    22:00 +24°C° 0 mm 1 mps 716 mmHg 21%
    23:00 +24°C° 0 mm 2 mps 716 mmHg 23%

    Tomorrow, 22 March, Friday

    Time Temperature Precipitation Wind Pressure Humidity
    00:00 +22°C° 0 mm 3 mps 716 mmHg 24%
    01:00 +21°C° 0 mm 4 mps 716 mmHg 25%
    02:00 +21°C° 0 mm 4 mps 716 mmHg 27%
    03:00 +20°C° 0 mm 3 mps 716 mmHg 28%
    04:00 +20°C° 0 mm 3 mps 716 mmHg 30%
    05:00 +20°C° 0 mm 3 mps 716 mmHg 31%
    06:00 +20°C° 0 mm 2 mps 716 mmHg 32%
    07:00 +19°C° 0 mm 2 mps 717 mmHg 33%
    08:00 +21°C° 0 mm 2 mps 717 mmHg 29%
    09:00 +24°C° 0 mm 2 mps 717 mmHg 25%
    10:00 +25°C° 0 mm 2 mps 718 mmHg 22%
    11:00 +26°C° 0 mm 3 mps 717 mmHg 21%
    12:00 +27°C° 0 mm 3 mps 717 mmHg 20%
    13:00 +28°C° 0 mm 4 mps 717 mmHg 20%
    14:00 +29°C° 0 mm 3 mps 716 mmHg 18%
    15:00 +29°C° 0 mm 2 mps 716 mmHg 17%
    16:00 +29°C° 0 mm 1 mps 716 mmHg 16%
    17:00 +28°C° 0 mm 1 mps 716 mmHg 18%
    18:00 +28°C° 0 mm 1 mps 716 mmHg 20%
    19:00 +27°C° 0 mm 1 mps 716 mmHg 22%
    20:00 +27°C° 0 mm 1 mps 716 mmHg 23%
    21:00 +26°C° 0 mm 2 mps 717 mmHg 24%
    22:00 +26°C° 0 mm 3 mps 717 mmHg 26%
    23:00 +25°C° 0 mm 4 mps 717 mmHg 29%

    Day after tomorrow, 23 March, Saturday

    Time Temperature Precipitation Wind Pressure Humidity
    00:00 +23°C° 0 mm 5 mps 717 mmHg 32%
    01:00 +22°C° 0 mm 6 mps 717 mmHg 36%
    02:00 +21°C° 0 mm 6 mps 717 mmHg 38%
    03:00 +20°C° 0 mm 6 mps 717 mmHg 40%
    04:00 +20°C° 0 mm 6 mps 717 mmHg 42%
    05:00 +19°C° 0 mm 6 mps 718 mmHg 43%
    06:00 +19°C° 0 mm 6 mps 718 mmHg 44%
    07:00 +19°C° 0 mm 6 mps 719 mmHg 45%
    08:00 +20°C° 0 mm 5 mps 719 mmHg 40%
    09:00 +22°C° 0 mm 5 mps 720 mmHg 35%
    10:00 +25°C° 0 mm 4 mps 720 mmHg 31%
    11:00 +26°C° 0 mm 3 mps 720 mmHg 28%
    12:00 +27°C° 0 mm 3 mps 719 mmHg 25%
    13:00 +28°C° 0 mm 3 mps 719 mmHg 23%
    14:00 +28°C° 0 mm 3 mps 719 mmHg 22%
    15:00 +28°C° 0 mm 2 mps 718 mmHg 21%
    16:00 +28°C° 0 mm 2 mps 717 mmHg 20%
    17:00 +28°C° 0 mm 2 mps 718 mmHg 22%
    18:00 +27°C° 0 mm 1 mps 718 mmHg 24%
    19:00 +25°C° 0 mm 0 mps 718 mmHg 26%
    20:00 +26°C° 0 mm 1 mps 718 mmHg 26%
    21:00 +26°C° 0 mm 1 mps 718 mmHg 26%
    22:00 +25°C° 0 mm 1 mps 719 mmHg 27%
    23:00 +25°C° 0 mm 2 mps 718 mmHg 27%

    24 March, Sunday

    Time Temperature Precipitation Wind Pressure Humidity
    00:00 +24°C° 0 mm 2 mps 718 mmHg 28%
    01:00 +22°C° 0 mm 3 mps 718 mmHg 28%
    02:00 +22°C° 0 mm 3 mps 717 mmHg 30%
    03:00 +21°C° 0 mm 2 mps 717 mmHg 32%
    04:00 +22°C° 0 mm 1 mps 717 mmHg 33%
    05:00 +21°C° 0.3 mm 2 mps 717 mmHg 35%
    06:00 +21°C° 0.3 mm 2 mps 718 mmHg 37%
    07:00 +21°C° 0.3 mm 2 mps 718 mmHg 39%
    08:00 +24°C° 0 mm 2 mps 718 mmHg 35%
    09:00 +25°C° 0 mm 2 mps 719 mmHg 32%
    10:00 +26°C° 0 mm 2 mps 719 mmHg 28%
    11:00 +27°C° 0 mm 2 mps 719 mmHg 27%
    12:00 +28°C° 0 mm 3 mps 718 mmHg 25%
    13:00 +29°C° 0 mm 3 mps 717 mmHg 24%
    14:00 +29°C° 0 mm 4 mps 717 mmHg 24%
    15:00 +29°C° 0 mm 4 mps 716 mmHg 24%
    16:00 +29°C° 0 mm 4 mps 716 mmHg 24%
    17:00 +29°C° 0 mm 4 mps 716 mmHg 26%
    18:00 +28°C° 0 mm 4 mps 716 mmHg 28%
    19:00 +27°C° 0 mm 3 mps 716 mmHg 30%
    20:00 +26°C° 0.1 mm 3 mps 716 mmHg 33%
    21:00 +26°C° 0.1 mm 3 mps 716 mmHg 36%
    22:00 +25°C° 0.1 mm 2 mps 716 mmHg 38%
    23:00 +25°C° 0.4 mm 3 mps 716 mmHg 41%

    25 March, Monday

    Time Temperature Precipitation Wind Pressure Humidity
    00:00 +24°C° 0.4 mm 3 mps 716 mmHg 43%
    01:00 +23°C° 0.4 mm 4 mps 715 mmHg 45%
    02:00 +22°C° 0 mm 4 mps 715 mmHg 46%
    03:00 +22°C° 0 mm 5 mps 715 mmHg 47%
    04:00 +22°C° 0 mm 5 mps 715 mmHg 48%
    05:00 +22°C° 0 mm 4 mps 715 mmHg 47%
    06:00 +22°C° 0 mm 4 mps 716 mmHg 46%
    07:00 +22°C° 0 mm 3 mps 716 mmHg 46%
    08:00 +25°C° 0 mm 4 mps 717 mmHg 41%
    09:00 +27°C° 0 mm 4 mps 717 mmHg 36%
    10:00 +29°C° 0 mm 4 mps 718 mmHg 31%
    11:00 +29°C° 0 mm 3 mps 718 mmHg 29%
    12:00 +30°C° 0 mm 2 mps 718 mmHg 27%
    13:00 +30°C° 0 mm 2 mps 717 mmHg 25%
    14:00 +31°C° 0 mm 1 mps 717 mmHg 24%
    15:00 +31°C° 0 mm 1 mps 717 mmHg 22%
    16:00 +31°C° 0 mm 1 mps 717 mmHg 21%
    17:00 +31°C° 0 mm 2 mps 717 mmHg 22%
    18:00 +30°C° 0 mm 2 mps 717 mmHg 23%
    19:00 +29°C° 0 mm 3 mps 717 mmHg 24%
    20:00 +29°C° 0 mm 3 mps 717 mmHg 25%
    21:00 +28°C° 0 mm 3 mps 718 mmHg 26%
    22:00 +28°C° 0 mm 3 mps 718 mmHg 27%
    23:00 +27°C° 0 mm 3 mps 718 mmHg 28%

    26 March, Tuesday

    Time Temperature Precipitation Wind Pressure Humidity
    00:00 +27°C° 0 mm 3 mps 718 mmHg 29%
    01:00 +26°C° 0 mm 3 mps 717 mmHg 31%
    02:00 +26°C° 0 mm 3 mps 717 mmHg 32%
    03:00 +25°C° 0 mm 3 mps 717 mmHg 33%
    04:00 +25°C° 0 mm 4 mps 717 mmHg 34%
    05:00 +25°C° 0 mm 4 mps 717 mmHg 34%
    06:00 +25°C° 0 mm 4 mps 717 mmHg 34%
    07:00 +25°C° 0 mm 5 mps 717 mmHg 34%
    08:00 +27°C° 0 mm 5 mps 718 mmHg 30%
    09:00 +30°C° 0 mm 5 mps 718 mmHg 27%
    10:00 +33°C° 0 mm 6 mps 718 mmHg 24%
    11:00 +34°C° 0 mm 6 mps 718 mmHg 21%
    12:00 +35°C° 0 mm 6 mps 717 mmHg 19%
    13:00 +36°C° 0 mm 7 mps 717 mmHg 16%
    14:00 +36°C° 0 mm 6 mps 717 mmHg 16%
    15:00 +37°C° 0 mm 5 mps 716 mmHg 15%
    16:00 +37°C° 0 mm 5 mps 716 mmHg 14%
    17:00 +35°C° 0 mm 4 mps 716 mmHg 16%
    18:00 +34°C° 0 mm 3 mps 716 mmHg 17%
    19:00 +32°C° 0 mm 2 mps 716 mmHg 18%
    20:00 +33°C° 0 mm 4 mps 716 mmHg 17%
    21:00 +33°C° 0 mm 6 mps 716 mmHg 16%
    22:00 +33°C° 0 mm 8 mps 716 mmHg 15%
    23:00 +32°C° 0 mm 7 mps 716 mmHg 17%
    Show more